Eelde, Netherlands

2:13 AM CEST on June 24, 2017 (GMT +0200)
Eelde

Weather History for EHGG - February, 2013

Change the Weather History Date:

Friday, February 1, 2013

  Actual Average Record
Temperature  
Mean Temperature 40 °F -  
Max Temperature 44 °F 40 °F 55 °F (2002)
Min Temperature 35 °F 29 °F 14 °F (1998)
Degree Days  
Heating Degree Days 26    
Moisture  
Dew Point 38 °F    
Average Humidity 90    
Maximum Humidity 100    
Minimum Humidity 73    
Precipitation  
Precipitation 0.12 in 0.06 in - ()
Sea Level Pressure  
Sea Level Pressure 29.51 in    
Wind  
Wind Speed 12 mph ()    
Max Wind Speed 21 mph    
Max Gust Speed 33 mph    
Visibility 6.0 miles    
Events Rain    
Averages and records for this station are not official NWS values.
T = Trace of Precipitation, MM = Missing Value Source: Averaged Metar Reports

Daily Weather History Graph

Daily Weather History Graph

Search for Another Location

Airport or City:

Trip Planner

Search our weather history database for the weather conditions in past years. The results will help you decide how hot, cold, wet, or windy it might be!

Date:

Astronomy

Feb. 01, 2013 Rise Set
Actual Time 8:17 AM CET 5:17 PM CET
Civil Twilight 7:39 AM CET 5:55 PM CET
Nautical Twilight 6:57 AM CET 6:37 PM CET
Astronomical Twilight 6:17 AM CET 7:17 PM CET
Moon No Moon Rise 9:48 AM CET (2/1)
Length of Visible Light 10h 16m
Length of Day
9h 00m
Waning Gibbous, 73% of the Moon is Illuminated
Feb 1
Waning Gibbous
Feb 3
Last Quarter
Feb 10
New
Feb 17
First Quarter
Feb 25
Full

Hourly Weather History & Observations

Time (CET) Temp. Windchill Dew Point Humidity Pressure Visibility Wind Dir Wind Speed Gust Speed Precip Events Conditions
12:25 AM 42.8 °F 34.0 °F 37.4 °F 81% 29.68 in 6.2 mi West 20.7 mph 33.4 mph N/A   Partly Cloudy
12:55 AM 42.8 °F 34.3 °F 37.4 °F 81% 29.68 in 6.2 mi West 19.6 mph - N/A   Partly Cloudy
1:00 AM 43 °F - 37 °F 73% 29.70 in 9 mi West 20.1 mph - -   Partly Cloudy
1:25 AM 42.8 °F 34.0 °F 37.4 °F 81% 29.68 in 6.2 mi West 20.7 mph - N/A   Unknown
1:55 AM 42.8 °F 34.5 °F 37.4 °F 81% 29.68 in 6.2 mi WSW 18.4 mph - N/A   Unknown
2:55 AM 42.8 °F 35.1 °F 37.4 °F 81% 29.68 in 6.2 mi WSW 16.1 mph - N/A   Unknown
3:25 AM 42.8 °F 35.4 °F 37.4 °F 81% 29.68 in 6.2 mi WSW 15.0 mph - N/A   Unknown
3:55 AM 42.8 °F 35.1 °F 39.2 °F 87% 29.68 in 6.2 mi WSW 16.1 mph - N/A   Unknown
4:00 AM 42 °F - 38 °F 83% 29.69 in 7 mi WSW 15.7 mph - -   Overcast
4:55 AM 41.0 °F 33.9 °F 39.2 °F 93% 29.65 in 6.2 mi SW 12.7 mph - N/A   Scattered Clouds
5:25 AM 41.0 °F 33.1 °F 39.2 °F 93% 29.65 in 6.2 mi WSW 15.0 mph - N/A   Partly Cloudy
5:55 AM 41.0 °F 33.5 °F 39.2 °F 93% 29.65 in 6.2 mi SW 13.8 mph - N/A   Partly Cloudy
6:25 AM 41.0 °F 33.5 °F 39.2 °F 93% 29.62 in 6.2 mi SW 13.8 mph - N/A   Unknown
6:55 AM 41.0 °F 33.9 °F 39.2 °F 93% 29.62 in 6.2 mi SW 12.7 mph - N/A   Scattered Clouds
7:00 AM 41 °F - 38 °F 86% 29.64 in 6 mi SW 13.4 mph - -   Partly Cloudy
7:25 AM 41.0 °F 33.5 °F 39.2 °F 93% 29.62 in 6.2 mi SW 13.8 mph - N/A   Partly Cloudy
7:55 AM 41.0 °F 34.3 °F 37.4 °F 87% 29.59 in 5.6 mi SW 11.5 mph - N/A   Unknown
8:25 AM 41.0 °F 34.3 °F 39.2 °F 93% 29.59 in 5.6 mi SW 11.5 mph - N/A   Mostly Cloudy
8:55 AM 41.0 °F 35.2 °F 39.2 °F 93% 29.59 in 5.6 mi SW 9.2 mph - N/A   Mostly Cloudy
9:25 AM 41.0 °F 34.7 °F 39.2 °F 93% 29.56 in 5.6 mi SW 10.4 mph - N/A   Mostly Cloudy
9:55 AM 42.8 °F 36.6 °F 39.2 °F 87% 29.56 in 5.6 mi SW 11.5 mph - N/A   Scattered Clouds
10:00 AM 42 °F - 40 °F 90% 29.57 in 5 mi SW 11.2 mph - -   Mist
10:25 AM 42.8 °F 36.6 °F 41.0 °F 93% 29.53 in 5.6 mi SW 11.5 mph - N/A   Mostly Cloudy
10:55 AM 42.8 °F 36.6 °F 41.0 °F 93% 29.53 in 5.6 mi SW 11.5 mph - N/A   Overcast
11:25 AM 44.6 °F 38.4 °F 41.0 °F 87% 29.53 in 6.2 mi SW 12.7 mph - N/A   Overcast
11:55 AM 44.6 °F 38.8 °F 41.0 °F 87% 29.53 in 6.2 mi SW 11.5 mph - N/A   Overcast
12:25 PM 44.6 °F 38.1 °F 41.0 °F 87% 29.50 in 6.2 mi SW 13.8 mph - N/A   Overcast
12:55 PM 44.6 °F 38.4 °F 39.2 °F 81% 29.47 in 6.2 mi WSW 12.7 mph - N/A   Overcast
1:00 PM 44 °F - 39 °F 77% 29.50 in 11 mi WSW 13.4 mph - -   Partly Cloudy
1:25 PM 44.6 °F 38.1 °F 39.2 °F 81% 29.47 in 6.2 mi WSW 13.8 mph - N/A   Mostly Cloudy
1:55 PM 42.8 °F 37.0 °F 39.2 °F 87% 29.44 in 6.2 mi WSW 10.4 mph - N/A Rain Light Rain
2:25 PM 42.8 °F 37.0 °F 39.2 °F 87% 29.44 in 6.2 mi WSW 10.4 mph - N/A   Drizzle
2:55 PM 41.0 °F 35.2 °F 39.2 °F 93% 29.42 in 6.2 mi WSW 9.2 mph - N/A Rain Light Rain
3:25 PM 41.0 °F 37.1 °F 39.2 °F 93% 29.42 in 6.2 mi WSW 5.8 mph - N/A Rain Light Rain
3:55 PM 41.0 °F 38.0 °F 37.4 °F 87% 29.39 in 6.2 mi WSW 4.6 mph - N/A Rain Light Rain
4:00 PM 40 °F - 38 °F 89% 29.41 in 9 mi WSW 4.5 mph - - Rain Light Rain
4:55 PM 39.2 °F 35.9 °F 37.4 °F 93% 29.39 in 6.2 mi WSW 4.6 mph - N/A Rain Light Rain
5:25 PM 39.2 °F 37.0 °F 37.4 °F 93% 29.36 in 6.2 mi West 3.5 mph - N/A Rain Light Rain
5:55 PM 39.2 °F - 37.4 °F 93% 29.36 in 6.2 mi Variable 2.3 mph - N/A Rain Light Rain
6:25 PM 39.2 °F - 37.4 °F 93% 29.36 in 6.2 mi West 1.2 mph - N/A Rain Light Rain
6:55 PM 37.4 °F 34.9 °F 35.6 °F 93% 29.36 in 6.2 mi WSW 3.5 mph - N/A   Drizzle
7:00 PM 38 °F - 36 °F 92% 29.37 in 9 mi WSW 4.5 mph - - Rain Light Rain
7:25 PM 37.4 °F 34.9 °F 37.4 °F 100% 29.36 in 6.2 mi West 3.5 mph - N/A Rain Light Rain
7:55 PM 37.4 °F 34.9 °F 37.4 °F 100% 29.36 in 6.2 mi WSW 3.5 mph - N/A Rain Light Rain
8:55 PM 37.4 °F 34.9 °F 37.4 °F 100% 29.33 in 5.0 mi West 3.5 mph - N/A   Mostly Cloudy
9:25 PM 37.4 °F 34.9 °F 35.6 °F 93% 29.33 in 3.1 mi WSW 3.5 mph - N/A Rain Light Rain
9:55 PM 35.6 °F 32.8 °F 33.8 °F 93% 29.33 in 1.8 mi WSW 3.5 mph - N/A   Mist
10:00 PM 35 °F - 34 °F 93% 29.34 in 1 mi West 4.5 mph - - Rain Rain
10:25 PM 35.6 °F 31.7 °F 35.6 °F 100% 29.33 in 3.1 mi West 4.6 mph - N/A   Overcast
10:55 PM 35.6 °F 30.7 °F 35.6 °F 100% 29.33 in 3.1 mi WSW 5.8 mph - N/A   Partly Cloudy
11:25 PM 39.2 °F 32.0 °F 37.4 °F 93% 29.36 in - West 11.5 mph - N/A Rain Light Rain Showers
11:55 PM 37.4 °F 32.8 °F 35.6 °F 93% 29.36 in 6.2 mi West 5.8 mph - N/A   Overcast